Regional Weather Roundup
Issued by NWS Charleston, SC

Current Version | Previous Version | Text Only | Print | Product List | Glossary Off
Versions: 1 2 3 4 5 6 7 8 9 10 11 12 13 14 15 16 17 18 19 20 21 22 23 24 25 26 27 28 29 30 31 32 33 34 35 36 37 38 39 40 41 42 43 44 45 46 47 48 49 50
000 ASUS42 KCHS 072012 RWRCHS REGIONAL WEATHER ROUNDUP NATIONAL WEATHER SERVICE CHARLESTON SC 300 PM EST WED DEC 07 2016 NOTE: "FAIR" INDICATES FEW OR NO CLOUDS BELOW 12,000 FEET WITH NO SIGNIFICANT WEATHER AND/OR OBSTRUCTIONS TO VISIBILITY. NOT ALL STATIONS ARE QUALITY CONTROLLED. USE DATA WITH CAUTION... ESPECIALLY DEWPOINT OBSERVATIONS. SCZ027-030-031-034>040-042>050-072100- ...SOUTHEAST SOUTH CAROLINA... CITY SKY/WX TMP DP RH WIND PRES REMARKS N CHARLESTON MOSUNNY 62 47 57 S7 30.04F WATERFRONT PRK N/A 58 52 80 VRB3 30.04S MOUNT PLEASANT NOT AVBL JOHNS ISLAND FAIR 59 52 77 SE5 30.04F PINOPOLIS N/A 55 52 88 W5 29.96S MONCKS CORNER MOCLDY 59 48 67 S6 30.04S SUMMERVILLE CLOUDY 55 55 100 S6 30.06S BEAUFORT MCAS CLOUDY 58 54 86 E7 30.04S BEAUFORT ARPT CLOUDY 57 54 88 NE6 30.04S HILTON HEAD IS CLOUDY 64 55 72 NE5 30.05S WALTERBORO CLOUDY 55 N/A N/A CALM 30.06S HAZE ALLENDALE CLOUDY 55 54 94 CALM 30.04S ...SOUTHERN MIDLANDS AND PEE DEE... CITY SKY/WX TMP DP RH WIND PRES REMARKS GEORGETOWN NOT AVBL KINGSTREE FAIR 61 45 55 CALM 30.03S ORANGEBURG CLOUDY 54 49 83 S6 30.05R BARNWELL NOT AVBL AIKEN CLOUDY 50 50 100 SE3 30.07S FOG MANNING FAIR 57 46 67 SW7 30.04S COLUMBIA CLOUDY 56 48 74 VRB5 30.03F SUMTER SUNNY 62 47 56 S5 30.00F FLORENCE SUNNY 62 46 55 CALM 30.02F MYRTLE BEACH SUNNY 61 46 59 S7 30.06R N MYRTLE BEACH SUNNY 59 48 67 S8 30.03S $$ GAZ063-065-086>088-099>101-113>116-118-119-134>141-150-072100- ...SOUTHEAST GEORGIA... CITY SKY/WX TMP DP RH WIND PRES REMARKS SAVANNAH ARPT CLOUDY 64 54 69 NW3 30.03S HUNTER AAF NOT AVBL FORT STEWART PTSUNNY 68 56 66 CALM 30.00S STATESBORO PTSUNNY 65 56 71 SW3 30.02S SYLVANIA CLOUDY N/A N/A N/A E3 30.04S CLAXTON FAIR 67 56 68 S5 30.02F ...CSRA...CENTRAL AND FAR SOUTHEAST GEORGIA... CITY SKY/WX TMP DP RH WIND PRES REMARKS THOMSON CLOUDY 55 54 95 CALM 30.08S AUGUSTA-BUSH CLOUDY 57 51 80 CALM 30.03F AUGUSTA-DANIEL CLOUDY 54 50 86 S3 30.04S FOG SWAINSBORO FAIR 64 52 63 W6 30.03S VIDALIA SUNNY 68 57 68 SW7 30.02F EASTMAN MOCLDY 66 43 42 SW6 30.06R HAZLEHURST FAIR 69 57 65 SW7 30.02S ALMA SUNNY 68 55 63 W7 30.02F WAYCROSS MOSUNNY 74 60 61 W7 30.02S JESUP FAIR 70 59 68 NW9 30.03S BAXLEY PTSUNNY 70 59 68 SW5 30.02F BRUNSWICK MOSUNNY 70 61 73 CALM 30.03S SAINT SIMONS SUNNY 66 57 72 SE6 30.02S $$ SCZ027-028-034-036>038-045-046-048>050-GAZ119-141-072100- ...LAKE AND SUPPLEMENTAL COASTAL OBSERVATIONS... STATION/POSITION TIME TEMP WIND PRES WAVE SWELL AIR SEA DIR/SP/G HT/PER HT/PER/DIR (UTC) (F) (DEG/KT/KT) (MB) (FT/S) (FT/S/D) WINYAH BAY NOT AVBL LAKE MURRAY 1920 57 190/ 6/ 9 1016.6S ACE BASIN NERRS 1845 55 20/ 1 1017.0 FORT PULASKI 1948 59 62 90/ 8/ 8 1017.4R SAPELO ISLAND 1900 67 100/ 5 1017.0 $$ ANZ835-935-AMZ111-154-330-350-352-354-370-450-454-472-072100- ...C-MAN AND BUOY OBSERVATIONS... STATION/POSITION TIME TEMP WIND PRES WAVE SWELL AIR SEA DIR/SP/G HT/PER HT/PER/DIR (UTC) (F) (DEG/KT/KT) (MB) (FT/S) (FT/S/D) BUOY 41004 1950 62 74 10/ 4/ 6 1016.7R 2/ 7 2/160/ 7 BUOY 41008 1950 61 65 60/ 6/ 8 1016.5F 2/ 5 2/150/ 5 FOLLY BEACH CMAN 1900 55 50/ 1/ 2 1018.2F CAPERS NEARSHORE NOT AVBL FRIPP NEARSHORE 1908 56 62 30/ 8/ 10 1017.1R STATION/POSITION TIME TEMP WIND PRES WAVE SWELL AIR SEA DIR/SP/G HT/PER HT/PER/DIR (UTC) (F) (DEG/KT/KT) (MB) (FT/S) (FT/S/D) 5E ST. MARYS GA 2000 67 N/A 2/ 7 FRYING PAN BUOY 1950 58 74 20/ 6/ 10 1017.0R 4/ 8 3/180/ 8 BUOY 41025 1950 56 76 350/ 12/ 16 1016.2R 6/ 8 5/ 70/ 8 CAPE LOOKOUT NC 1900 54 10/ 13/ 15 1016.0R BUOY 41002 1950 71 74 320/ 12/ 16 1015.1R 7/ 8 7/280/ 8 BUOY 41010 NOT AVBL ST AUGUSTINE FL 2000 65 68 40/ 5/ 5 1017.5F $$

USA.gov is the U.S. government's official web portal to all federal, state and local government web resources and services.